TimeCST,TemperatureF,Dew PointF,Humidity,Sea Level PressureIn,VisibilityMPH,Wind Direction,Wind SpeedMPH,Gust SpeedMPH,PrecipitationIn,Events,Conditions,WindDirDegrees,DateUTC
12:44 AM,53.6,48.2,82,30.15,10.0,North,6.9,-,N/A,,Partly Cloudy,10,2013-02-09 06:44:00
12:53 AM,53.1,48.9,86,30.16,10.0,North,5.8,-,N/A,,Partly Cloudy,10,2013-02-09 06:53:00
1:53 AM,51.1,46.9,86,30.17,10.0,North,6.9,-,N/A,,Clear,350,2013-02-09 07:53:00
2:53 AM,48.0,44.1,86,30.17,10.0,North,8.1,-,N/A,,Clear,10,2013-02-09 08:53:00
3:53 AM,46.0,43.0,89,30.18,10.0,NNE,5.8,-,N/A,,Clear,30,2013-02-09 09:53:00
4:53 AM,44.1,41.0,89,30.21,10.0,North,4.6,-,N/A,,Clear,10,2013-02-09 10:53:00
5:53 AM,42.1,39.9,92,30.23,10.0,North,4.6,-,N/A,,Clear,10,2013-02-09 11:53:00
6:53 AM,42.1,39.0,89,30.25,10.0,NNE,5.8,-,N/A,,Clear,20,2013-02-09 12:53:00
7:53 AM,44.1,39.0,82,30.27,10.0,NE,10.4,-,N/A,,Clear,40,2013-02-09 13:53:00
8:53 AM,46.9,39.9,77,30.27,10.0,ENE,8.1,-,N/A,,Clear,60,2013-02-09 14:53:00
9:53 AM,52.0,39.0,61,30.27,10.0,ENE,10.4,-,N/A,,Clear,70,2013-02-09 15:53:00
10:53 AM,55.0,37.9,53,30.25,10.0,East,5.8,-,N/A,,Clear,100,2013-02-09 16:53:00
11:53 AM,59.0,37.9,46,30.24,10.0,ENE,6.9,-,N/A,,Clear,60,2013-02-09 17:53:00
12:53 PM,61.0,36.0,39,30.20,10.0,ENE,3.5,-,N/A,,Clear,70,2013-02-09 18:53:00
1:53 PM,63.0,36.0,37,30.19,10.0,ENE,4.6,-,N/A,,Clear,70,2013-02-09 19:53:00
2:53 PM,64.9,35.1,33,30.17,10.0,East,8.1,-,N/A,,Clear,80,2013-02-09 20:53:00
3:53 PM,64.9,36.0,34,30.18,10.0,ESE,4.6,-,N/A,,Clear,120,2013-02-09 21:53:00
4:53 PM,64.0,37.0,37,30.19,10.0,East,4.6,-,N/A,,Clear,80,2013-02-09 22:53:00
5:53 PM,57.0,44.1,62,30.19,10.0,Calm,Calm,-,N/A,,Clear,0,2013-02-09 23:53:00
6:53 PM,54.0,45.0,72,30.19,10.0,Calm,Calm,-,N/A,,Clear,0,2013-02-10 00:53:00
7:53 PM,46.9,43.0,86,30.20,10.0,Calm,Calm,-,N/A,,Clear,0,2013-02-10 01:53:00
8:53 PM,48.0,43.0,83,30.21,10.0,Calm,Calm,-,N/A,,Clear,0,2013-02-10 02:53:00
9:53 PM,45.0,42.1,90,30.20,10.0,Calm,Calm,-,N/A,,Clear,0,2013-02-10 03:53:00
10:53 PM,46.9,44.1,90,30.20,8.0,Calm,Calm,-,N/A,,Clear,0,2013-02-10 04:53:00
11:53 PM,50.0,42.1,74,30.20,10.0,East,3.5,-,N/A,,Clear,90,2013-02-10 05:53:00